Temperature
18 18 17 17 17 16 16 16 16 15 15 15 15 15 15 15 14 14 14 14 14 14 14 14 14 14 14 14 14 14 13 13 13 12 12 12 12 12 12 12 12 13 13
18 18 17 17 17 17 16 16 16 16 15 15 15 15 15 15 14 14 14 14 14 14 14 14 14 13 13 13 13 13 13 13 13 12 12 12 12 12 12 12 12 12 12
18 18 17 17 17 17 16 16 16 16 15 15 15 15 15 14 14 14 14 14 14 14 13 13 13 13 13 13 13 13 13 12 12 12 12 12 12 12 12 12 12 12 12
18 18 18 17 17 17 16 16 16 16 15 15 15 15 15 14 14 14 14 14 14 13 13 13 13 13 13 13 13 12 12 12 12 12 12 12 12 12 12 12 12 12 12
18 18 18 17 17 17 16 16 16 16 15 15 15 15 14 14 14 14 14 14 13 13 13 13 13 13 13 13 13 12 12 12 12 12 12 12 12 12 12 11 12 11 11
18 18 18 17 17 17 17 16 16 16 15 15 15 15 14 14 14 14 13 13 13 13 13 13 13 13 12 12 12 12 12 12 12 12 11 11 11 11 11 11 11 11 11
18 18 18 17 17 17 17 16 16 16 15 15 15 15 14 14 14 13 13 13 13 13 13 13 12 12 12 12 12 12 12 12 11 11 11 11 11 11 11 11 10 10 10
18 18 18 17 17 17 17 16 16 16 16 15 15 15 14 14 14 13 13 13 13 13 13 12 12 12 12 12 12 12 11 11 11 11 11 11 10 10 10 10 10 10 10
19 18 18 18 17 17 17 16 16 16 16 15 15 14 14 14 14 13 13 13 13 12 12 12 12 12 12 12 11 11 11 11 11 11 10 10 10 10 10 9 9 9 9
19 18 18 18 17 17 17 16 16 16 15 15 15 14 14 14 13 13 13 13 12 12 12 12 12 11 11 11 11 11 11 11 10 10 10 10 10 9 9 9 9 9 8
19 18 18 18 17 17 16 16 16 15 15 15 14 14 14 13 13 13 13 12 12 12 12 12 12 11 11 11 11 10 10 10 10 10 10 9 9 9 9 9 8 8 8
18 18 18 17 17 17 16 16 15 15 15 14 14 14 14 13 13 13 12 12 12 12 12 12 11 11 11 11 10 10 10 10 10 9 9 9 9 9 9 8 8 8 7
18 18 17 17 17 16 16 16 15 15 15 14 14 14 14 13 13 13 12 12 12 12 11 11 11 11 10 10 10 10 10 9 9 9 9 9 9 8 8 8 7 7 7
18 17 17 17 16 16 16 15 15 15 15 14 14 14 14 13 13 13 12 12 12 11 11 11 11 10 10 10 10 10 9 9 9 9 9 8 8 8 8 7 7 7 7
17 17 17 16 16 16 16 15 15 15 15 14 14 14 14 13 13 13 12 12 12 11 11 11 10 10 10 10 10 9 9 9 9 9 8 8 8 8 7 7 7 6 6
17 17 17 16 16 16 15 15 15 14 14 14 14 13 13 13 13 12 12 12 11 11 10 10 10 10 10 10 9 9 9 9 8 8 8 8 7 7 7 7 6 6 6
17 16 16 16 16 15 15 15 15 14 14 14 13 13 13 13 12 12 12 11 11 10 10 10 10 10 10 9 9 9 9 8 8 8 7 7 7 7 6 6 6 6 5
16 16 16 15 15 15 15 15 14 14 14 14 13 13 13 12 12 12 11 11 10 10 10 10 10 9 9 9 9 8 8 8 7 7 7 7 6 6 6 6 5 5 5
15 15 15 15 15 14 14 14 14 13 13 13 13 13 12 12 12 11 11 10 10 10 10 10 10 9 9 9 8 8 8 7 7 7 7 6 6 6 6 5 5 5 5
15 15 14 14 14 14 13 13 13 13 13 12 12 12 12 11 11 11 11 10 10 10 10 10 9 9 9 8 8 8 7 7 7 6 6 6 6 5 5 5 5 4 4
14 14 13 13 13 13 13 13 12 12 12 12 12 12 11 11 11 11 11 10 10 10 10 9 9 9 8 8 7 7 7 6 6 6 6 5 5 5 5 4 4 4 4
13 13 12 12 12 12 12 12 12 12 11 11 11 11 11 10 10 10 10 10 10 9 9 9 8 8 8 7 7 7 6 6 6 6 5 5 5 4 4 4 4 3 3
12 12 12 11 11 11 11 11 11 11 11 11 10 10 10 10 9 9 9 9 9 9 8 8 8 7 7 7 7 6 6 6 6 5 5 4 4 4 4 3 3 3 3
11 11 11 11 11 11 10 10 10 10 10 10 10 9 9 9 9 9 8 8 8 8 8 7 7 7 7 7 6 6 6 6 5 5 4 4 4 4 3 3 3 2 2
10 10 10 10 10 10 10 9 9 9 9 9 9 9 8 8 8 8 8 8 7 7 7 7 7 7 6 6 6 6 5 5 5 4 4 4 3 3 3 3 2 2 2
9 9 9 9 9 9 9 8 8 8 8 8 8 8 8 8 7 7 7 7 7 7 7 6 6 6 6 6 5 5 5 5 4 4 4 3 3 3 2 2 2 1 1
Wind_Speed
7 6 6 5 5 5 4 4 4 3 3 3 3 4 4 4 4 5 5 5 6 5 5 6 5 4 4 4 4 4 3 3 4 1 2 3 5 6 10 12 13 14 15
7 7 6 6 6 5 5 4 4 4 3 4 4 4 3 3 3 4 4 4 5 4 4 5 4 4 5 4 4 4 3 2 3 2 2 3 4 4 6 7 10 11 12
7 7 7 6 7 6 5 5 4 4 4 4 4 4 3 3 3 3 4 4 4 3 3 3 3 4 4 3 4 4 3 3 3 3 1 2 2 3 4 4 6 7 9
8 8 8 8 7 7 6 5 5 5 5 4 3 3 3 3 3 3 4 4 3 3 2 2 3 3 4 3 3 3 3 4 4 3 2 2 2 3 3 3 4 4 5
9 9 8 7 7 6 6 6 5 5 5 4 4 3 3 3 3 4 4 4 4 3 3 2 2 3 4 3 3 3 4 3 3 2 1 2 2 3 3 2 3 4 3
10 9 7 7 7 7 7 6 6 5 5 4 4 4 3 2 4 7 6 5 4 4 2 1 1 2 3 4 4 4 5 4 3 2 1 0 1 2 1 2 2 3 3
10 9 8 9 8 8 7 7 7 6 5 5 4 4 3 3 5 7 7 5 4 3 3 2 1 2 3 3 3 4 3 2 3 4 3 3 2 3 1 1 1 1 2
10 9 9 9 9 8 8 7 6 5 5 5 4 4 3 3 5 7 7 5 3 2 2 3 3 1 1 3 3 2 1 1 0 2 3 4 4 4 3 2 2 2 3
10 10 10 11 10 9 9 8 6 5 5 5 4 5 5 4 5 7 7 4 3 2 2 2 3 3 3 4 4 2 0 2 1 1 2 2 3 3 2 1 1 1 2
12 12 11 11 11 11 11 8 5 5 6 6 4 4 5 4 6 8 8 4 3 2 1 2 4 4 5 4 4 3 2 3 2 1 2 2 3 3 2 2 2 1 1
10 9 10 10 11 10 8 7 6 6 6 5 5 4 4 5 6 8 9 5 5 4 3 3 4 6 5 5 5 4 5 3 2 1 1 2 2 2 2 2 3 3 3
9 9 9 9 9 8 8 7 7 8 7 5 4 3 3 4 5 7 8 8 6 5 5 4 4 6 6 6 4 5 5 3 1 1 1 2 2 3 3 3 4 5 6
9 9 8 8 8 8 9 9 7 7 6 6 5 5 4 4 4 7 8 8 8 5 5 6 6 6 5 4 5 6 4 2 2 2 3 4 3 4 3 3 3 4 5
9 8 8 8 7 7 7 8 8 8 7 7 7 7 5 4 5 4 5 5 7 6 4 5 6 5 4 4 4 3 3 3 3 4 4 4 3 2 3 2 2 2 3
7 7 7 7 8 7 7 7 9 9 10 10 9 8 7 7 10 11 8 6 6 6 4 2 1 2 3 3 3 3 3 3 4 4 4 4 4 4 4 3 3 2 3
6 6 6 6 6 6 6 4 6 6 8 10 9 9 8 9 9 10 12 11 10 8 5 3 4 5 6 6 6 5 4 5 5 5 5 5 5 5 5 4 3 4 6
7 6 5 6 6 6 6 6 5 3 5 7 9 10 9 9 9 10 11 11 10 9 5 5 6 7 7 6 6 6 6 6 5 5 6 6 6 6 6 6 5 5 7
5 5 6 5 6 6 6 6 6 5 4 4 6 10 10 10 10 10 10 7 5 6 6 7 8 7 7 7 7 7 6 5 5 5 6 6 7 6 6 7 7 7 7
4 3 4 4 4 5 5 5 5 6 5 4 2 4 8 8 8 9 8 6 7 8 8 8 8 8 7 7 7 7 7 7 6 6 6 7 7 6 7 8 8 10 9
2 4 4 3 3 3 4 4 4 5 5 5 5 5 3 3 4 5 6 7 7 8 8 8 8 8 7 7 7 7 7 7 7 7 7 7 7 7 8 9 8 8 8
1 2 3 3 2 3 3 4 5 5 5 6 6 6 6 5 7 7 7 7 8 9 8 8 8 7 7 7 7 7 8 8 8 8 7 7 7 7 7 7 8 8 8
1 1 1 2 2 2 3 3 4 5 6 6 5 5 7 5 5 6 7 7 8 8 8 7 7 7 7 8 8 8 8 9 8 8 8 7 7 7 6 6 7 7 7
1 1 0 1 2 2 2 2 3 4 5 5 5 4 5 6 6 7 7 7 7 7 7 7 7 7 8 9 10 9 9 9 9 8 8 8 7 7 6 7 8 8 8
1 0 1 1 1 2 2 3 3 4 5 5 5 5 6 6 7 8 7 7 7 7 7 7 8 10 11 10 11 12 14 14 13 11 10 8 8 7 7 7 8 9 9
1 0 1 1 2 2 3 3 4 4 5 5 6 6 6 6 7 7 7 7 7 7 8 8 9 10 12 13 13 14 16 17 16 13 10 8 8 8 8 8 8 9 9
1 1 1 1 2 2 3 4 4 5 5 6 6 6 6 6 7 7 6 6 7 7 8 8 10 12 13 13 15 16 16 16 16 15 11 8 8 8 8 7 9 9 9
Wind_Direction
171 167 157 159 155 151 152 157 154 140 129 125 118 109 102 91 88 89 84 80 79 66 59 70 62 55 62 54 66 75 76 102 121 1 341 344 8 14 16 27 33 37 38
171 163 163 158 153 156 162 162 153 146 134 130 122 116 113 109 104 107 105 95 95 89 77 76 67 69 62 55 66 71 75 85 122 107 0 358 2 356 4 17 24 29 33
164 161 159 161 163 167 168 162 154 145 134 125 122 126 127 125 119 115 115 108 106 104 100 96 88 87 75 68 72 73 69 72 84 110 37 355 347 352 358 7 14 14 21
166 167 171 175 174 170 163 159 156 149 144 141 134 135 136 131 127 125 121 113 103 92 92 103 110 114 120 111 93 91 89 78 74 83 59 4 347 335 7 7 0 359 360
169 176 183 176 165 159 158 158 153 150 152 146 137 131 130 138 152 146 138 130 118 99 79 81 120 133 134 134 126 130 117 104 91 83 59 16 352 354 351 338 349 336 345
175 184 176 162 160 164 163 155 150 148 143 140 147 149 154 168 162 158 148 138 135 130 120 80 77 98 107 108 117 132 139 138 145 139 148 195 286 282 297 328 339 360 341
179 177 171 167 168 170 164 155 159 161 153 152 157 157 170 193 170 159 157 142 143 152 156 148 116 94 96 96 92 87 85 119 159 160 171 212 227 233 222 305 302 271 273
179 177 174 171 171 165 160 165 166 160 162 166 169 171 173 201 179 163 157 139 141 159 176 175 165 173 159 140 123 91 45 358 216 171 191 218 225 225 205 203 220 262 282
184 184 181 175 170 167 172 174 169 164 169 173 172 171 176 198 184 169 155 139 148 178 200 186 182 191 203 161 140 143 350 311 314 224 223 245 271 271 214 132 34 21 325
193 189 180 175 175 179 181 174 165 166 173 168 168 178 183 198 200 183 166 152 164 193 223 231 218 211 210 189 167 172 211 259 269 327 341 330 324 313 286 191 187 193 251
186 175 172 177 181 180 173 168 161 159 156 164 174 188 196 207 209 196 182 174 183 190 207 229 240 230 221 215 201 199 223 225 218 225 275 302 313 311 296 252 206 193 213
165 168 175 177 178 175 166 167 163 160 162 172 181 201 220 222 217 212 202 197 188 187 211 222 230 231 227 222 219 226 230 224 181 205 259 273 278 279 280 278 260 245 239
164 172 175 172 174 170 172 171 165 169 175 184 189 206 222 222 228 225 217 212 204 201 217 220 226 232 226 233 236 230 221 206 194 223 245 253 250 253 268 289 291 281 277
170 174 170 171 173 173 176 176 177 183 188 192 198 210 217 216 219 220 218 221 217 219 225 231 231 231 225 232 244 243 222 213 213 229 244 250 252 255 259 255 264 281 292
172 173 174 178 178 180 187 193 194 201 196 195 204 203 201 218 223 209 200 208 209 210 189 187 206 223 235 245 251 250 241 234 236 236 239 249 255 258 261 248 242 245 251
169 177 180 179 180 182 186 204 224 216 214 210 206 198 212 218 212 203 207 210 207 192 172 201 219 224 230 235 239 245 241 239 239 236 239 243 249 253 261 255 239 242 258
178 183 180 180 182 184 185 192 213 238 229 221 216 211 214 214 210 206 208 209 206 189 198 222 227 230 234 235 236 238 243 242 235 233 239 245 248 252 254 257 255 255 262
173 175 177 184 185 187 192 197 199 202 215 240 235 226 223 223 218 213 205 191 211 210 220 229 233 234 234 236 238 241 246 248 240 239 241 245 244 247 252 255 254 253 262
172 179 182 182 186 191 192 193 199 207 216 227 238 242 232 230 226 221 195 199 218 225 228 233 235 234 235 236 238 239 240 243 244 241 243 244 245 243 250 253 255 257 258
179 175 168 170 174 183 187 192 203 211 218 225 231 234 213 191 215 222 214 218 224 231 231 234 236 234 234 235 237 238 242 245 246 246 248 248 245 243 250 254 255 257 258
143 166 162 158 177 191 194 205 212 215 222 230 237 232 206 208 220 224 223 223 226 230 233 234 236 235 234 234 234 236 239 245 245 246 248 248 245 247 250 251 253 254 258
127 142 169 189 197 206 215 220 220 222 227 234 245 241 219 217 226 230 231 233 231 232 233 231 232 234 231 229 232 236 240 246 247 246 248 249 247 246 248 252 257 260 262
107 111 128 219 215 214 221 229 229 231 235 237 237 234 226 228 234 236 239 241 239 239 239 235 236 241 243 241 238 234 236 242 242 240 242 246 243 244 245 250 255 262 262
79 117 217 254 242 230 232 240 243 243 244 244 241 239 238 237 239 242 244 248 248 247 245 241 242 244 246 247 246 243 244 246 246 242 236 239 243 246 246 251 254 257 260
56 337 273 261 257 253 251 251 251 251 250 248 246 245 245 243 244 247 248 249 249 249 249 249 249 249 250 249 250 250 251 251 249 246 240 236 240 242 245 250 255 260 260
18 337 298 279 266 261 260 260 259 256 254 252 250 247 246 246 248 248 248 249 250 253 254 255 253 253 254 253 252 253 254 252 249 247 242 236 238 245 246 252 256 258 263
Height
1566 1568 1569 1571 1572 1573 1574 1574 1575 1575 1575 1575 1575 1575 1575 1575 1575 1575 1575 1574 1574 1574 1574 1574 1574 1573 1573 1573 1573 1573 1572 1573 1572 1572 1571 1571 1570 1568 1567 1566 1564 1562 1561
1564 1566 1568 1570 1571 1572 1573 1574 1575 1575 1576 1576 1576 1576 1576 1576 1576 1576 1575 1575 1575 1575 1575 1574 1574 1574 1574 1574 1573 1573 1573 1573 1573 1572 1572 1571 1570 1569 1568 1566 1565 1563 1562
1562 1565 1567 1569 1570 1572 1573 1574 1575 1575 1576 1576 1576 1576 1576 1576 1576 1576 1576 1576 1576 1575 1575 1575 1575 1574 1574 1574 1574 1574 1574 1573 1573 1572 1572 1571 1570 1569 1568 1567 1565 1564 1562
1560 1562 1565 1567 1569 1570 1572 1573 1574 1575 1575 1576 1576 1576 1577 1577 1577 1577 1577 1576 1576 1576 1575 1575 1575 1575 1574 1574 1574 1574 1574 1573 1573 1572 1571 1571 1570 1569 1568 1566 1565 1564 1562
1557 1560 1562 1565 1567 1569 1570 1572 1573 1574 1575 1575 1576 1576 1576 1576 1576 1576 1576 1576 1576 1576 1576 1575 1575 1575 1575 1574 1574 1574 1573 1573 1572 1572 1571 1570 1569 1568 1567 1565 1564 1563 1561
1554 1557 1560 1562 1565 1567 1569 1570 1572 1573 1574 1574 1575 1575 1576 1576 1576 1576 1576 1576 1576 1576 1575 1575 1575 1575 1575 1574 1574 1573 1573 1573 1572 1571 1570 1569 1568 1567 1566 1565 1563 1561 1560
1551 1554 1557 1560 1562 1564 1566 1568 1570 1571 1572 1573 1573 1574 1574 1575 1575 1575 1575 1575 1575 1575 1575 1575 1574 1574 1574 1574 1573 1573 1572 1571 1571 1570 1569 1568 1567 1566 1565 1563 1562 1560 1558
1547 1550 1553 1556 1559 1561 1563 1565 1567 1569 1570 1571 1571 1572 1573 1573 1573 1573 1574 1574 1574 1574 1574 1574 1573 1573 1573 1572 1572 1571 1571 1570 1569 1568 1568 1567 1566 1564 1563 1562 1560 1559 1557
1543 1546 1549 1552 1555 1558 1560 1562 1564 1566 1567 1568 1569 1570 1570 1571 1571 1571 1572 1572 1572 1572 1572 1572 1572 1572 1571 1571 1570 1569 1569 1568 1567 1567 1566 1565 1563 1562 1561 1560 1558 1556 1554
1539 1542 1546 1549 1551 1554 1556 1559 1561 1563 1564 1566 1566 1567 1568 1568 1569 1569 1569 1569 1570 1570 1570 1570 1570 1569 1569 1568 1568 1567 1566 1566 1565 1564 1563 1562 1561 1560 1559 1557 1555 1553 1551
1536 1539 1542 1545 1548 1551 1553 1555 1557 1559 1561 1562 1563 1564 1565 1565 1566 1566 1567 1567 1567 1567 1567 1567 1567 1567 1566 1566 1565 1564 1564 1563 1562 1561 1560 1559 1558 1557 1556 1554 1552 1551 1549
1532 1535 1538 1541 1544 1547 1549 1551 1554 1555 1557 1558 1559 1560 1561 1562 1563 1563 1563 1564 1564 1564 1564 1564 1564 1564 1563 1563 1562 1561 1561 1560 1559 1558 1557 1556 1554 1553 1552 1551 1549 1547 1545
1528 1531 1535 1538 1540 1543 1545 1547 1549 1551 1552 1553 1555 1556 1557 1558 1559 1559 1560 1560 1560 1560 1561 1561 1561 1560 1560 1559 1559 1558 1557 1556 1555 1554 1553 1552 1551 1549 1548 1547 1545 1543 1542
1525 1528 1531 1534 1536 1539 1541 1543 1544 1546 1547 1549 1550 1551 1552 1553 1554 1555 1555 1556 1556 1556 1556 1556 1556 1556 1555 1555 1554 1554 1553 1552 1551 1550 1548 1547 1546 1545 1544 1542 1540 1538 1536
1522 1524 1527 1530 1532 1534 1536 1538 1540 1541 1543 1544 1546 1547 1548 1548 1549 1550 1551 1551 1551 1552 1552 1551 1551 1550 1550 1550 1549 1549 1548 1547 1546 1545 1544 1542 1541 1540 1538 1537 1535 1533 1530
1519 1521 1523 1526 1528 1530 1531 1533 1535 1537 1538 1540 1541 1542 1543 1544 1545 1545 1546 1546 1546 1547 1546 1545 1544 1544 1544 1544 1544 1543 1543 1542 1541 1540 1538 1537 1536 1534 1532 1531 1529 1527 1524
1516 1517 1519 1521 1523 1525 1527 1528 1530 1532 1533 1534 1535 1536 1537 1538 1539 1539 1540 1540 1541 1540 1539 1538 1538 1538 1538 1538 1538 1537 1537 1536 1535 1534 1532 1531 1530 1528 1526 1524 1523 1521 1518
1512 1514 1516 1517 1519 1520 1522 1523 1524 1526 1527 1527 1529 1530 1531 1532 1533 1533 1534 1534 1533 1533 1532 1532 1532 1532 1532 1532 1531 1531 1530 1529 1528 1527 1526 1524 1523 1521 1519 1517 1516 1514 1511
1509 1511 1512 1513 1514 1516 1517 1518 1519 1520 1521 1522 1523 1524 1525 1526 1526 1527 1527 1526 1525 1525 1525 1525 1525 1525 1525 1525 1524 1523 1523 1522 1521 1520 1518 1517 1516 1514 1512 1510 1508 1506 1504
1506 1507 1509 1509 1510 1511 1512 1513 1514 1515 1515 1516 1517 1518 1519 1519 1519 1519 1519 1518 1518 1518 1518 1518 1518 1518 1517 1517 1516 1516 1515 1514 1513 1512 1510 1509 1508 1506 1504 1502 1501 1499 1496
1503 1504 1505 1506 1506 1507 1508 1508 1509 1510 1510 1510 1511 1512 1512 1512 1512 1512 1511 1511 1511 1511 1511 1511 1510 1510 1510 1509 1508 1507 1506 1505 1504 1503 1502 1501 1500 1498 1496 1495 1493 1491 1488
1501 1501 1501 1502 1502 1503 1503 1504 1505 1505 1504 1504 1504 1505 1505 1505 1505 1504 1504 1504 1503 1503 1503 1503 1502 1502 1502 1501 1500 1499 1498 1496 1496 1495 1493 1492 1491 1490 1488 1487 1485 1483 1481
1498 1498 1498 1498 1499 1499 1499 1499 1499 1499 1498 1498 1498 1498 1498 1497 1497 1497 1496 1496 1496 1496 1496 1495 1494 1494 1493 1493 1492 1491 1489 1488 1487 1486 1485 1484 1483 1481 1480 1478 1476 1474 1472
1495 1495 1495 1494 1494 1494 1494 1494 1494 1493 1492 1492 1492 1491 1491 1490 1490 1489 1489 1489 1488 1488 1487 1487 1486 1485 1485 1484 1483 1482 1481 1480 1479 1477 1476 1475 1474 1473 1471 1469 1468 1466 1464
1492 1491 1491 1490 1490 1489 1489 1488 1488 1487 1486 1486 1485 1485 1484 1483 1483 1482 1482 1481 1480 1480 1479 1478 1478 1477 1476 1475 1474 1473 1472 1471 1469 1468 1467 1466 1465 1463 1462 1461 1459 1457 1455
1488 1488 1487 1486 1485 1485 1484 1483 1482 1481 1481 1480 1479 1478 1477 1476 1476 1475 1474 1473 1472 1471 1471 1470 1469 1468 1467 1466 1465 1464 1462 1461 1460 1459 1458 1457 1456 1454 1453 1451 1450 1448 1446